Regional Weather Roundup
Issued by NWS

Home | Current Version | Previous Version | Text Only | Print | Product List | Glossary On
Versions: 1 2 3 4 5 6 7 8 9 10 11 12 13 14 15 16 17 18 19 20 21 22 23 24 25 26 27 28 29 30 31 32 33 34 35 36 37 38 39 40 41 42 43 44 45 46 47 48 49 50
309
ASUS43 KOAX 040810
RWRNE

WEATHER ROUNDUP FOR NEBRASKA
NATIONAL WEATHER SERVICE OMAHA NE
300 AM CDT WED MAY 04 2016

NOTES: SATELLITE DATA IS BEING USED TO AUGMENT CLOUD COVER ABOVE
       12000 FEET.
       "FAIR" INDICATES FEW OR NO CLOUDS BELOW 12,000 FEET WITH NO
       SIGNIFICANT WEATHER AND/OR OBSTRUCTIONS TO VISIBILITY.

  * THESE STATIONS DO NOT REPORT WEATHER SUCH AS RAIN...SNOW OR FOG.

NEZ001>004-019>022-054>056-040900-
NEBRASKA PANHANDLE

CITY           SKY/WX    TMP DP  RH WIND       PRES   REMARKS
SCOTTSBLUFF    CLEAR     42  38  85 N3        30.18S
ALLIANCE       CLEAR     39  37  92 W9        30.15F WCI  33
CHADRON        CLEAR     42  39  89 SW7       30.15S
KIMBALL        CLEAR     37  36  93 NW6       30.22S WCI  33
SIDNEY         CLEAR     38  34  85 NW9       30.19S WCI  31
$$

NEZ057>060-069>072-079>082-040900-
SOUTHWEST NEBRASKA

CITY           SKY/WX    TMP DP  RH WIND       PRES   REMARKS
NORTH PLATTE   CLEAR     41  38  89 NW9       30.08S
IMPERIAL       CLEAR     48  37  65 NW8       30.13S
LEXINGTON      CLEAR     47  41  78 NW8       30.05R
MCCOOK         CLEAR     46  39  76 W9        30.08S
OGALLALA       CLEAR     41  38  89 W7        30.14R
$$

NEZ005>010-023>029-035>040-094-040900-
NORTH CENTRAL NEBRASKA

CITY           SKY/WX    TMP DP  RH WIND       PRES   REMARKS
VALENTINE      CLEAR     46  39  76 NW6       30.09R
AINSWORTH      CLEAR     47  40  76 NW5       30.08R
BROKEN BOW     CLEAR     49  41  74 N9        30.04R
O`NEILL        PTCLDY    46  37  71 N8        30.04R
ORD            CLEAR     47  42  83 NW10      30.01S
THEDFORD       CLEAR     47  41  79 W8        30.09S
$$

NEZ041-046>049-061>064-073>077-083>087-040900-
SOUTH CENTRAL NEBRASKA

CITY           SKY/WX    TMP DP  RH WIND       PRES   REMARKS
GRAND ISLAND   CLEAR     48  42  80 NW9       30.00S
AURORA         CLEAR     51  44  77 NW9       29.99R
HASTINGS       CLEAR     51  42  71 NW12      29.99R
HEBRON         CLEAR     53  45  74 NW9       29.96R
HOLDREGE       CLEAR     49  40  71 NW3       30.02S
KEARNEY *      CLEAR     52  39  62 NW8       30.02S
YORK           CLEAR     50  45  81 NW10      29.98R
$$

NEZ011>018-030>034-042>045-040900-
NORTHEAST NEBRASKA

CITY           SKY/WX    TMP DP  RH WIND       PRES   REMARKS
NORFOLK        CLEAR     51  36  56 NW9       29.98R
ALBION         CLEAR     46  39  79 NW6       30.00R
BLAIR          CLEAR     56  36  47 N13G18    29.91R
COLUMBUS *     PTCLDY    52  36  54 NW7       29.98R
FREMONT        CLEAR     50  39  65 NW6       29.94R
TEKAMAH        CLEAR     51  38  60 N13       29.91R
WAYNE          CLEAR     48  37  64 NW9       29.97R
$$

NEZ050>053-065>068-078-088>093-040900-
SOUTHEAST NEBRASKA

CITY           SKY/WX    TMP DP  RH WIND       PRES   REMARKS
LINCOLN        CLEAR     56  43  61 NW8       29.95R
OMAHA EPPLEY   CLEAR     51  43  74 N7        29.89S
BEATRICE       CLEAR     50  45  83 NW10      29.93R
FALLS CITY     PTCLDY    57  44  62 NW15      29.86R
NEBRASKA CITY  CLEAR     56  42  59 N10       29.89R
PLATTSMOUTH    CLEAR     56  42  60 NW8       29.89S
$$

NEZ044-045-051>053-067-040900-
OMAHA AREA

CITY           SKY/WX    TMP DP  RH WIND       PRES   REMARKS
OMAHA EPPLEY   CLEAR     51  43  74 N7        29.89S
BLAIR          CLEAR     56  36  47 N13G18    29.91R
FREMONT        CLEAR     50  39  65 NW6       29.94R
MILLARD        CLEAR     58  39  49 NW6       29.90S
OFFUTT AFB     CLEAR     58  38  48 NW10      29.88S
PLATTSMOUTH    CLEAR     56  42  60 NW8       29.89S
WAHOO          FAIR      52  42  68 NW9       29.93R
$$




USA.gov is the U.S. government's official web portal to all federal, state and local government web resources and services.